Kodiak, AK

3:45 AM AKDT on August 19, 2017 (GMT -0800)
Kodiak

Weather History for PADQ - May, 2013

Change the Weather History Date:

Wednesday, May 15, 2013

  Actual Average Record
Temperature  
Mean Temperature 40 °F 44 °F  
Max Temperature 48 °F 50 °F 76 °F (1942)
Min Temperature 31 °F 39 °F 30 °F (1966)
Degree Days  
Heating Degree Days 25 21  
Month to date heating degree days 347 333  
Since 1 July heating degree days 8217 8025  
Cooling Degree Days 0 0  
Month to date cooling degree days 0 0  
Year to date cooling degree days 0 0  
Moisture  
Dew Point 31 °F    
Average Humidity 0    
Maximum Humidity 0    
Minimum Humidity 0    
Precipitation  
Precipitation 0.00 in 0.18 in 2.45 in (1983)
Month to date precipitation 0.92 2.57  
Year to date precipitation 24.14 28.34  
Snow  
Snow 0.00 in 0.00 in - ()
Month to date snowfall 0.9 0.2  
Since 1 July snowfall 65.6 68.9  
Snow Depth 0.00 in    
Sea Level Pressure  
Sea Level Pressure 29.68 in    
Wind  
Wind Speed 7 mph (ENE)    
Max Wind Speed 17 mph    
Max Gust Speed 20 mph    
Visibility 9 miles    
Events Rain    
T = Trace of Precipitation, MM = Missing Value Source: NWS Daily Summary

Daily Weather History Graph

Daily Weather History Graph

Search for Another Location

Airport or City:

Trip Planner

Search our weather history database for the weather conditions in past years. The results will help you decide how hot, cold, wet, or windy it might be!

Date:

Astronomy

May. 15, 2013 Rise Set
Actual Time 5:46 AM AKDT 10:27 PM AKDT
Civil Twilight 4:51 AM AKDT 11:23 PM AKDT
Nautical Twilight 3:14 AM AKDT 1:04 AM AKDT
Astronomical Twilight Sun does not set Sun does not set
Moon 10:47 AM AKDT (5/15) 2:07 AM AKDT (5/15)
Length of Visible Light 18h 32m
Length of Day
16h 41m
Waxing Crescent, 28% of the Moon is Illuminated
May 15
Waxing Crescent
May 17
First Quarter
May 24
Full
May 31
Last Quarter
Jun 8
New

Hourly Weather History & Observations

Time (AKDT) Temp. Windchill Dew Point Humidity Pressure Visibility Wind Dir Wind Speed Gust Speed Precip Events Conditions
12:53 AM 34.0 °F 29.8 °F 25.0 °F 70% 29.71 in 10.0 mi West 4.6 mph - N/A   Scattered Clouds
1:53 AM 32.0 °F 26.4 °F 24.1 °F 73% 29.72 in 10.0 mi West 5.8 mph - N/A   Scattered Clouds
2:53 AM 30.9 °F 25.2 °F 24.1 °F 76% 29.72 in 10.0 mi West 5.8 mph - N/A   Scattered Clouds
3:53 AM 32.0 °F 26.4 °F 25.0 °F 75% 29.71 in 10.0 mi West 5.8 mph - N/A   Mostly Cloudy
4:53 AM 33.1 °F 26.1 °F 25.0 °F 72% 29.70 in 10.0 mi West 8.1 mph - N/A   Mostly Cloudy
5:53 AM 33.1 °F 26.9 °F 25.0 °F 72% 29.69 in 10.0 mi West 6.9 mph - N/A   Mostly Cloudy
6:53 AM 34.0 °F 31.0 °F 27.0 °F 75% 29.69 in 10.0 mi West 3.5 mph - N/A   Mostly Cloudy
7:53 AM 37.0 °F 34.5 °F 27.0 °F 67% 29.69 in 10.0 mi West 3.5 mph - N/A   Overcast
8:53 AM 39.9 °F - 28.0 °F 63% 29.69 in 10.0 mi Calm Calm - N/A   Overcast
9:53 AM 42.1 °F 40.2 °F 26.1 °F 53% 29.69 in 10.0 mi East 3.5 mph - N/A   Overcast
10:53 AM 43.0 °F 38.8 °F 30.9 °F 62% 29.69 in 10.0 mi NE 6.9 mph - N/A   Overcast
11:53 AM 44.1 °F 42.5 °F 25.0 °F 47% 29.69 in 10.0 mi ESE 3.5 mph - N/A   Overcast
12:53 PM 48.0 °F - 25.0 °F 41% 29.69 in 10.0 mi East 8.1 mph - N/A   Overcast
1:53 PM 46.9 °F - 30.9 °F 54% 29.69 in 10.0 mi East 13.8 mph - N/A   Mostly Cloudy
2:53 PM 45.0 °F 37.9 °F 35.1 °F 68% 29.69 in 10.0 mi East 16.1 mph - N/A   Overcast
3:53 PM 46.0 °F 39.0 °F 36.0 °F 68% 29.69 in 10.0 mi East 17.3 mph - N/A   Overcast
4:53 PM 44.1 °F 36.5 °F 36.0 °F 73% 29.68 in 10.0 mi East 17.3 mph - N/A   Overcast
5:53 PM 43.0 °F 35.7 °F 37.9 °F 82% 29.67 in 10.0 mi East 15.0 mph - 0.00 in Rain Light Rain
6:53 PM 42.1 °F 35.2 °F 37.9 °F 85% 29.66 in 8.0 mi East 12.7 mph - 0.00 in Rain Light Rain
7:34 PM 42.8 °F 37.5 °F 37.4 °F 81% 29.65 in 10.0 mi ENE 9.2 mph - 0.01 in Rain Light Rain
7:53 PM 41.0 °F 35.8 °F 37.9 °F 89% 29.65 in 7.0 mi ENE 8.1 mph - 0.01 in Rain Light Rain
8:53 PM 39.9 °F 33.9 °F 36.0 °F 86% 29.64 in 6.0 mi ENE 9.2 mph - 0.04 in Rain Light Rain
9:53 PM 39.9 °F 33.4 °F 37.0 °F 89% 29.62 in 4.0 mi East 10.4 mph - 0.05 in Rain Rain
10:53 PM 39.0 °F 31.0 °F 36.0 °F 89% 29.62 in 5.0 mi ENE 13.8 mph - 0.08 in Rain Rain
11:53 PM 39.0 °F 32.3 °F 36.0 °F 89% 29.59 in 5.0 mi NE 10.4 mph - 0.07 in Rain Rain